Simultaneous Nadir Overpasses (SNOs) Predictions

Prediction of SNOs near US between AQUA and NPP Satellite Orbit:

Table of predicted SNOs near US for the next 10.0 days since TLE Epoch: 7/12/2014
Index Date (AQUA) Time (AQUA) AQUA Lat,Lon Date (NPP) Time (NPP) NPP Lat,Lon Distance(km) Time Diff (sec)
1 07/14/2014 06:30:38 46.52, -65.03 07/14/2014 06:37:42 46.89, -66.97 153.62 424
2 07/16/2014 17:27:48 49.95, -67.83 07/16/2014 17:27:04 49.71, -69.20 101.61 44
3 07/16/2014 19:04:53 43.53, -90.11 07/16/2014 19:06:41 43.19, -91.95 153.57 108
4 07/16/2014 20:41:16 34.55,-112.05 07/16/2014 20:45:34 34.06,-114.34 217.73 258
5 07/19/2014 06:56:27 20.06, -77.18 07/19/2014 06:51:54 19.95, -76.74 47.53 273
6 07/19/2014 08:31:45 33.00, -98.66 07/19/2014 08:29:41 33.00, -98.65 1.02 124
7 07/19/2014 10:05:55 49.89,-117.75 07/19/2014 10:06:19 49.93,-118.01 19.13 24




NCC Satellite Simultaneous Nadir Overpasses (SNOs) Prediction Service
